Terug naar catalogus

COSMOS 249 DEB *

ActiefLEO
NORAD 4008·DEBRIS·🇷🇺 Russia

Gelanceerd Oct 20, 1968 vanaf Baikonur Cosmodrome

Loading…

Volgende Passages (komende 24 uur)

TLE

VersSource: Space-Track

Epoch: Sep 14, 2026, 21:10 UTC

1 04008U 68091BY  26257.88262991  .00001390  00000-0  37313-3 0  9996
2 04008  62.8531 314.6529 0483783 215.8528 140.9146 13.99927633853253

Volg COSMOS 249 DEB * in realtime met AllMySat

Download on the App Store